Regional Weather Roundup
Issued by NWS Cleveland, OH

Home | Current Version | Previous Version | Graphics & Text | Print | Product List | Glossary On
Versions: 1 2 3 4 5 6 7 8 9 10 11 12 13 14 15 16 17 18 19 20 21 22 23 24 25 26 27 28 29 30 31 32 33 34 35 36 37 38 39 40 41 42 43 44 45 46 47 48 49 50
000
ASUS41 KCLE 192100
RWRCLE
OHIO REGIONAL WEATHER ROUNDUP
NATIONAL WEATHER SERVICE WILMINGTON, OH
400 PM EST FRI DEC 19 2014

NOTE: "FAIR" INDICATES FEW OR NO CLOUDS BELOW 12,000 FEET WITH NO
SIGNIFICANT WEATHER AND/OR OBSTRUCTIONS TO VISIBILITY.

OHZ001>008-015>018-024>027-034-035-043-044-192200-
   NORTHWEST OHIO

CITY           SKY/WX    TMP DP  RH WIND       PRES   REMARKS
DEFIANCE       CLOUDY    31  22  69 CALM      30.27R
FINDLAY        CLOUDY    31  22  69 CALM      30.25R
TOLEDO EXPRESS CLOUDY    30  25  81 CALM      30.26R
TOLEDO METCALF CLOUDY    30  23  75 E3        30.28R
LIMA           CLOUDY    32  23  69 CALM      30.25R
$$

OHZ009>014-019>023-028>033-038-089-192200-
   NORTHEAST OHIO

CITY           SKY/WX    TMP DP  RH WIND       PRES   REMARKS
CLE-HOPKINS    CLOUDY    31  21  66 NW7       30.28R WCI  24
CLE-LAKEFRONT  CLOUDY    32  20  61 W5        30.26R WCI  27
CUY CO. ARPT   CLOUDY    32  23  69 N8        30.25R WCI  25
LORAIN-ELYRIA  CLOUDY    30  23  75 N5        30.26R WCI  25
ASHTABULA      MOCLDY    31  20  63 W8        30.23R WCI  23
AKRON-CANTON   CLOUDY    30  24  78 W5        30.23R WCI  25
WOOSTER        NOT AVBL
MANSFIELD      CLOUDY    28  23  81 NW3       30.23R
YOUNGSTOWN     CLOUDY    30  23  75 N7        30.20R WCI  23
$$

OHZ042-051>053-060>062-070>072-077>081-192200-
  SOUTHWEST OHIO

CITY           SKY/WX    TMP DP  RH WIND       PRES   REMARKS
CINC-COVINGTON CLOUDY    31  18  58 CALM      30.25S
CINC-LUNKEN    CLOUDY    31  21  66 CALM      30.29S
HAMILTON       CLOUDY    32  21  64 CALM      30.27F
DAYTON         NOT AVBL
WRIGHT-PAT AFB CLOUDY    30  22  72 NW2       30.25S
DAYTON GENERAL CLOUDY    31  22  69 N3        30.24S
WILMINGTON     CLOUDY    29  21  72 NE3       30.23S
$$

OHZ036-037-039>041-045>050-054>059-063>069-073>076-082>088-192200-
  CENTRAL AND SOUTHEAST OHIO

CITY           SKY/WX    TMP DP  RH WIND       PRES   REMARKS
COLUMBUS       CLOUDY    30  22  72 CALM      30.26S
OSU AIRPORT    CLOUDY    30  23  75 CALM      30.25S
BOLTON FIELD   CLOUDY    30  25  80 CALM      30.26S
RICKENBACK AFB NOT AVBL
NEWARK         CLOUDY    31  23  72 SW3       30.25S
MARION         CLOUDY    30  23  75 CALM      30.25R HAZE
LANCASTER      CLOUDY    35  24  64 N3        30.26S
ZANESVILLE     CLOUDY    29  23  78 SW3       30.25R
NEW PHILLY     CLOUDY    32  24  72 W5        30.26R WCI  27
$$


USA.gov is the U.S. government's official web portal to all federal, state and local government web resources and services.